EUTE 2-F3

导读 | 豆包AI

EUTE 2-F3(又称EUTELSAT 2-F3)是由欧洲通信卫星组织(EUTELSAT)主导研发的通信卫星,于1991年12月7日发射升空。作为欧洲第二代通信卫星系列的重要成员,它主要承担欧洲、中东及周边区域的电视广播、语音通信与数据传输服务,为跨国电信网络提供稳定空间链路支撑,服役期间有效推动了区域通信基础设施的现代化发展,见证了欧洲卫星通信产业从起步到成熟的发展进程。

Basic Information
目录编号:
21803
目录名称:
EUTE 2-F3
国际标识:
1991-083A
轨道中心:
EARTH
卫星名称:
EUTE 2-F3
卫星全名:
--
卫星状态:
在轨 (已飞行12564 天)
发射日期:
1991-12-07 UTC
国别 :
(EUTE)
星等 :
--
Orbit Information
数据来源 国际轨道数据 AOE轨道数据
星历时间 2026-05-01T04:18:14+0800
12小时前
查看轨道信息
2026-05-01T04:00:00+0800
12小时前
查看轨道信息
半长轴 42439.15km 42439.293km
偏心率 0.0002221 0.0002189
轨道倾角 14.782° 14.782°
近地点辐角 326.090° 326.621°
升交点赤经 1.998° 1.997°
平近点角 208.073° 203.015°
近地点 36051.587km 36051.866km
远地点 36070.439km 36070.446km
周期 1450.139分钟 1450.147分钟
每日圈数 0.993008 0.993003
Detailed Information
使用方式:
暂无
2D Orbit Map
3D Orbit Map
Orbit Altitude Analysis Chart
Orbit Inclination Analysis Chart
Orbit Comprehensive Analysis Chart
View Comprehensive Chart